QPF
0.00 0.00 0.00 0.00 0.01 0.01 0.00 0.00 0.00 0.00 0.00 0.00 0.00 0.00 0.00 0.00 0.00 0.00 0.01 0.01 0.01 0.01 0.01 0.01 0.01 0.01 0.01 0.01 0.02 0.02 0.02 0.02 0.01 0.01 0.01 0.02 0.03 0.02 0.01 0.01 0.01 0.01 0.01 0.00
0.00 0.00 0.01 0.01 0.01 0.00 0.00 0.00 0.00 0.00 0.00 0.00 0.00 0.00 0.01 0.01 0.00 0.00 0.00 0.01 0.01 0.01 0.01 0.01 0.00 0.00 0.00 0.01 0.01 0.01 0.01 0.01 0.01 0.01 0.01 0.02 0.02 0.01 0.02 0.01 0.01 0.01 0.01 0.00
0.00 0.00 0.00 0.00 0.00 0.00 0.00 0.00 0.00 0.00 0.00 0.00 0.00 0.00 0.00 0.01 0.01 0.00 0.00 0.00 0.01 0.01 0.01 0.01 0.01 0.00 0.01 0.01 0.01 0.01 0.01 0.01 0.01 0.01 0.01 0.01 0.01 0.01 0.01 0.01 0.01 0.01 0.00 0.00
0.01 0.01 0.00 0.00 0.00 0.00 0.00 0.00 0.00 0.00 0.00 0.00 0.00 0.00 0.00 0.00 0.01 0.01 0.00 0.00 0.00 0.01 0.01 0.01 0.01 0.00 0.01 0.01 0.01 0.01 0.01 0.01 0.02 0.02 0.01 0.01 0.01 0.01 0.01 0.01 0.01 0.01 0.01 0.00
0.01 0.01 0.00 0.00 0.00 0.00 0.00 0.00 0.00 0.00 0.00 0.00 0.00 0.00 0.00 0.00 0.00 0.00 0.00 0.00 0.00 0.00 0.00 0.01 0.01 0.01 0.00 0.01 0.01 0.01 0.01 0.01 0.02 0.02 0.02 0.01 0.00 0.00 0.00 0.01 0.01 0.01 0.01 0.01
0.01 0.01 0.00 0.00 0.00 0.00 0.00 0.00 0.00 0.00 0.00 0.00 0.00 0.00 0.00 0.00 0.00 0.00 0.00 0.00 0.00 0.00 0.00 0.01 0.01 0.01 0.01 0.01 0.01 0.01 0.01 0.01 0.02 0.03 0.02 0.01 0.00 0.00 0.00 0.00 0.00 0.01 0.01 0.01
0.01 0.01 0.00 0.00 0.00 0.00 0.00 0.00 0.00 0.00 0.00 0.00 0.00 0.00 0.00 0.00 0.00 0.00 0.00 0.00 0.00 0.00 0.00 0.01 0.01 0.01 0.01 0.01 0.01 0.01 0.01 0.03 0.03 0.03 0.02 0.02 0.01 0.00 0.00 0.00 0.00 0.00 0.01 0.01
0.01 0.01 0.00 0.00 0.00 0.00 0.00 0.00 0.00 0.00 0.00 0.00 0.00 0.00 0.00 0.00 0.00 0.00 0.00 0.00 0.00 0.00 0.00 0.00 0.01 0.01 0.01 0.01 0.02 0.02 0.02 0.03 0.03 0.04 0.03 0.02 0.02 0.01 0.01 0.00 0.00 0.00 0.00 0.00
0.01 0.01 0.00 0.00 0.00 0.00 0.01 0.01 0.01 0.00 0.00 0.00 0.00 0.00 0.00 0.00 0.00 0.00 0.00 0.00 0.00 0.00 0.00 0.00 0.01 0.01 0.01 0.02 0.02 0.02 0.03 0.04 0.04 0.04 0.04 0.03 0.02 0.02 0.02 0.01 0.01 0.00 0.00 0.00
0.01 0.01 0.00 0.00 0.00 0.00 0.01 0.01 0.01 0.01 0.01 0.01 0.00 0.00 0.00 0.00 0.00 0.00 0.00 0.00 0.00 0.00 0.00 0.00 0.00 0.00 0.01 0.02 0.03 0.02 0.03 0.05 0.05 0.05 0.05 0.04 0.03 0.02 0.02 0.01 0.01 0.00 0.00 0.00
0.01 0.01 0.00 0.00 0.00 0.00 0.00 0.00 0.00 0.00 0.01 0.01 0.01 0.01 0.01 0.00 0.00 0.00 0.00 0.00 0.00 0.01 0.01 0.00 0.00 0.01 0.01 0.01 0.01 0.02 0.04 0.05 0.05 0.04 0.04 0.04 0.05 0.04 0.02 0.01 0.01 0.01 0.01 0.01
0.01 0.01 0.01 0.01 0.00 0.00 0.00 0.01 0.00 0.00 0.00 0.01 0.01 0.00 0.00 0.00 0.00 0.00 0.00 0.00 0.00 0.01 0.01 0.01 0.01 0.01 0.01 0.01 0.02 0.02 0.03 0.05 0.05 0.04 0.03 0.02 0.03 0.03 0.03 0.02 0.01 0.01 0.01 0.01
0.01 0.01 0.01 0.01 0.01 0.01 0.01 0.01 0.01 0.01 0.01 0.01 0.01 0.01 0.00 0.00 0.00 0.00 0.00 0.00 0.01 0.01 0.01 0.01 0.01 0.01 0.01 0.01 0.02 0.02 0.03 0.04 0.04 0.03 0.02 0.02 0.02 0.02 0.02 0.01 0.01 0.01 0.01 0.01
0.00 0.00 0.00 0.01 0.01 0.01 0.01 0.01 0.01 0.01 0.01 0.01 0.01 0.01 0.01 0.00 0.00 0.00 0.00 0.00 0.01 0.01 0.01 0.01 0.01 0.01 0.02 0.02 0.02 0.02 0.03 0.04 0.03 0.02 0.02 0.02 0.02 0.02 0.02 0.01 0.01 0.01 0.01 0.01
0.01 0.00 0.00 0.01 0.01 0.01 0.01 0.01 0.02 0.03 0.02 0.01 0.01 0.01 0.00 0.00 0.00 0.00 0.00 0.01 0.01 0.01 0.01 0.02 0.02 0.02 0.02 0.02 0.02 0.02 0.02 0.02 0.02 0.02 0.03 0.02 0.02 0.02 0.02 0.02 0.02 0.01 0.01 0.01
0.01 0.01 0.01 0.01 0.01 0.01 0.01 0.01 0.02 0.03 0.03 0.02 0.02 0.01 0.01 0.00 0.00 0.00 0.00 0.01 0.01 0.02 0.02 0.02 0.02 0.03 0.03 0.03 0.03 0.02 0.02 0.02 0.02 0.02 0.02 0.03 0.02 0.02 0.02 0.02 0.03 0.04 0.04 0.03
0.01 0.02 0.02 0.02 0.02 0.01 0.01 0.01 0.02 0.02 0.02 0.02 0.02 0.01 0.01 0.00 0.00 0.00 0.00 0.00 0.01 0.01 0.01 0.02 0.02 0.03 0.03 0.04 0.04 0.03 0.03 0.02 0.02 0.03 0.03 0.03 0.03 0.03 0.03 0.03 0.03 0.04 0.05 0.05
0.02 0.02 0.02 0.02 0.02 0.02 0.02 0.02 0.02 0.02 0.02 0.02 0.02 0.02 0.01 0.01 0.00 0.00 0.00 0.00 0.01 0.01 0.02 0.02 0.03 0.03 0.04 0.04 0.04 0.04 0.03 0.03 0.02 0.02 0.02 0.03 0.03 0.03 0.03 0.03 0.02 0.02 0.03 0.03
0.04 0.04 0.03 0.03 0.03 0.03 0.02 0.02 0.02 0.02 0.02 0.01 0.01 0.01 0.01 0.01 0.00 0.00 0.00 0.00 0.01 0.01 0.02 0.02 0.03 0.04 0.04 0.04 0.04 0.04 0.04 0.04 0.04 0.03 0.03 0.03 0.02 0.02 0.02 0.02 0.01 0.02 0.02 0.02
0.04 0.04 0.04 0.04 0.03 0.03 0.03 0.03 0.02 0.02 0.01 0.01 0.01 0.01 0.00 0.00 0.00 0.00 0.00 0.00 0.01 0.01 0.01 0.02 0.03 0.04 0.04 0.04 0.03 0.03 0.03 0.03 0.03 0.03 0.03 0.03 0.02 0.02 0.01 0.01 0.01 0.01 0.01 0.01
0.03 0.04 0.03 0.03 0.03 0.02 0.02 0.02 0.02 0.02 0.01 0.01 0.01 0.00 0.00 0.00 0.00 0.00 0.00 0.00 0.00 0.01 0.01 0.02 0.02 0.03 0.03 0.03 0.03 0.03 0.03 0.02 0.02 0.02 0.02 0.02 0.02 0.01 0.01 0.00 0.00 0.00 0.00 0.00
0.03 0.02 0.01 0.01 0.01 0.01 0.01 0.01 0.01 0.01 0.01 0.00 0.00 0.00 0.00 0.00 0.00 0.00 0.00 0.00 0.00 0.01 0.01 0.02 0.02 0.02 0.02 0.03 0.02 0.02 0.02 0.03 0.03 0.02 0.02 0.02 0.02 0.01 0.01 0.00 0.00 0.00 0.00 0.00
0.01 0.01 0.01 0.01 0.00 0.00 0.00 0.01 0.01 0.01 0.00 0.00 0.00 0.00 0.00 0.00 0.00 0.00 0.00 0.00 0.00 0.01 0.01 0.02 0.02 0.01 0.02 0.03 0.02 0.01 0.01 0.02 0.02 0.02 0.02 0.02 0.01 0.01 0.01 0.01 0.01 0.01 0.01 0.01
0.01 0.01 0.01 0.01 0.00 0.00 0.00 0.00 0.00 0.00 0.00 0.00 0.00 0.00 0.00 0.00 0.00 0.00 0.00 0.00 0.00 0.01 0.01 0.01 0.02 0.02 0.02 0.02 0.01 0.01 0.01 0.01 0.02 0.01 0.01 0.01 0.01 0.01 0.01 0.01 0.01 0.01 0.01 0.01
0.01 0.01 0.01 0.01 0.01 0.01 0.01 0.01 0.01 0.01 0.01 0.01 0.01 0.01 0.01 0.01 0.01 0.01 0.01 0.01 0.01 0.01 0.01 0.01 0.02 0.02 0.03 0.02 0.01 0.01 0.01 0.01 0.01 0.01 0.01 0.01 0.01 0.01 0.01 0.01 0.01 0.01 0.01 0.01
0.02 0.01 0.01 0.01 0.01 0.02 0.02 0.02 0.02 0.01 0.01 0.01 0.01 0.01 0.01 0.01 0.02 0.02 0.01 0.01 0.01 0.01 0.01 0.01 0.01 0.01 0.02 0.02 0.01 0.01 0.01 0.01 0.01 0.01 0.01 0.01 0.01 0.01 0.01 0.01 0.01 0.01 0.01 0.01
0.02 0.02 0.02 0.01 0.01 0.01 0.01 0.02 0.02 0.01 0.01 0.01 0.01 0.01 0.02 0.02 0.01 0.02 0.02 0.02 0.01 0.01 0.01 0.01 0.01 0.01 0.01 0.01 0.01 0.01 0.01 0.01 0.01 0.01 0.01 0.01 0.01 0.01 0.01 0.01 0.01 0.01 0.01 0.01
MSLP
1022.35 1022.59 1022.82 1023.06 1023.28 1023.50 1023.70 1023.86 1023.98 1024.06 1024.10 1024.13 1024.17 1024.25 1024.39 1024.61 1024.92 1025.32 1025.78 1026.30 1026.85 1027.41 1027.95 1028.46 1028.94 1029.38 1029.79 1030.18 1030.54 1030.89 1031.21 1031.52 1031.80 1032.04 1032.24 1032.40 1032.52 1032.60 1032.64 1032.66 1032.66 1032.65 1032.65 1032.65
1022.26 1022.39 1022.47 1022.52 1022.56 1022.60 1022.65 1022.70 1022.77 1022.86 1022.98 1023.11 1023.29 1023.51 1023.77 1024.09 1024.47 1024.90 1025.38 1025.90 1026.45 1027.02 1027.60 1028.17 1028.73 1029.27 1029.78 1030.26 1030.70 1031.11 1031.48 1031.80 1032.09 1032.34 1032.54 1032.72 1032.86 1032.97 1033.05 1033.11 1033.15 1033.18 1033.19 1033.20
1022.32 1022.32 1022.25 1022.12 1021.97 1021.84 1021.74 1021.69 1021.71 1021.79 1021.95 1022.17 1022.44 1022.76 1023.12 1023.51 1023.93 1024.38 1024.86 1025.37 1025.91 1026.49 1027.09 1027.72 1028.34 1028.97 1029.57 1030.14 1030.66 1031.13 1031.54 1031.89 1032.20 1032.46 1032.69 1032.89 1033.07 1033.23 1033.36 1033.48 1033.56 1033.63 1033.66 1033.68
1022.49 1022.35 1022.11 1021.81 1021.49 1021.20 1020.97 1020.82 1020.78 1020.86 1021.04 1021.30 1021.64 1022.03 1022.44 1022.87 1023.31 1023.76 1024.23 1024.73 1025.27 1025.85 1026.47 1027.14 1027.83 1028.53 1029.21 1029.85 1030.44 1030.97 1031.43 1031.83 1032.17 1032.46 1032.73 1032.97 1033.20 1033.41 1033.61 1033.78 1033.91 1034.01 1034.07 1034.09
1022.66 1022.38 1021.99 1021.53 1021.06 1020.63 1020.28 1020.05 1019.96 1020.02 1020.20 1020.49 1020.86 1021.29 1021.73 1022.18 1022.63 1023.08 1023.54 1024.02 1024.56 1025.15 1025.80 1026.50 1027.24 1028.00 1028.75 1029.46 1030.12 1030.71 1031.22 1031.66 1032.05 1032.39 1032.70 1033.00 1033.29 1033.56 1033.81 1034.03 1034.21 1034.34 1034.41 1034.42
1022.71 1022.29 1021.77 1021.18 1020.59 1020.05 1019.62 1019.32 1019.19 1019.22 1019.39 1019.70 1020.08 1020.52 1020.98 1021.44 1021.89 1022.34 1022.80 1023.29 1023.83 1024.44 1025.12 1025.86 1026.65 1027.46 1028.27 1029.04 1029.76 1030.40 1030.97 1031.47 1031.90 1032.30 1032.67 1033.02 1033.36 1033.69 1033.98 1034.25 1034.45 1034.60 1034.67 1034.67
1022.53 1021.99 1021.35 1020.67 1019.99 1019.39 1018.90 1018.57 1018.41 1018.42 1018.59 1018.89 1019.28 1019.73 1020.20 1020.67 1021.13 1021.59 1022.07 1022.58 1023.14 1023.78 1024.48 1025.26 1026.09 1026.95 1027.80 1028.63 1029.39 1030.09 1030.71 1031.26 1031.76 1032.21 1032.63 1033.03 1033.42 1033.78 1034.12 1034.40 1034.62 1034.76 1034.82 1034.80
1022.04 1021.41 1020.70 1019.96 1019.25 1018.61 1018.11 1017.76 1017.60 1017.61 1017.78 1018.08 1018.48 1018.93 1019.41 1019.90 1020.38 1020.87 1021.37 1021.91 1022.51 1023.18 1023.92 1024.73 1025.59 1026.48 1027.37 1028.23 1029.04 1029.78 1030.45 1031.05 1031.60 1032.10 1032.57 1033.02 1033.44 1033.83 1034.17 1034.45 1034.66 1034.79 1034.83 1034.79
1021.23 1020.56 1019.82 1019.07 1018.36 1017.74 1017.26 1016.94 1016.78 1016.81 1016.99 1017.30 1017.70 1018.17 1018.66 1019.17 1019.68 1020.20 1020.74 1021.32 1021.95 1022.65 1023.42 1024.25 1025.13 1026.04 1026.94 1027.82 1028.66 1029.44 1030.15 1030.80 1031.39 1031.94 1032.45 1032.93 1033.37 1033.76 1034.10 1034.37 1034.55 1034.65 1034.66 1034.60
1020.17 1019.48 1018.76 1018.05 1017.39 1016.83 1016.40 1016.13 1016.02 1016.07 1016.27 1016.59 1017.01 1017.48 1017.99 1018.52 1019.07 1019.62 1020.20 1020.81 1021.47 1022.18 1022.97 1023.80 1024.68 1025.58 1026.49 1027.37 1028.22 1029.02 1029.76 1030.45 1031.08 1031.67 1032.22 1032.71 1033.16 1033.55 1033.87 1034.12 1034.27 1034.34 1034.33 1034.25
1018.94 1018.29 1017.63 1017.00 1016.43 1015.96 1015.62 1015.42 1015.36 1015.45 1015.68 1016.02 1016.44 1016.93 1017.45 1018.00 1018.56 1019.14 1019.74 1020.37 1021.05 1021.77 1022.54 1023.35 1024.20 1025.08 1025.96 1026.83 1027.67 1028.48 1029.24 1029.96 1030.63 1031.25 1031.83 1032.34 1032.80 1033.18 1033.48 1033.70 1033.82 1033.87 1033.84 1033.76
1017.68 1017.10 1016.54 1016.02 1015.57 1015.21 1014.97 1014.86 1014.87 1015.00 1015.26 1015.61 1016.04 1016.52 1017.05 1017.61 1018.18 1018.77 1019.38 1020.01 1020.67 1021.37 1022.10 1022.87 1023.67 1024.50 1025.34 1026.17 1027.00 1027.80 1028.58 1029.32 1030.02 1030.68 1031.28 1031.81 1032.27 1032.65 1032.94 1033.14 1033.26 1033.29 1033.26 1033.19
1016.49 1016.01 1015.56 1015.17 1014.85 1014.62 1014.49 1014.47 1014.54 1014.72 1015.00 1015.35 1015.78 1016.27 1016.79 1017.34 1017.91 1018.49 1019.09 1019.70 1020.33 1020.98 1021.66 1022.37 1023.10 1023.86 1024.64 1025.43 1026.23 1027.03 1027.81 1028.57 1029.30 1029.99 1030.62 1031.17 1031.65 1032.03 1032.32 1032.52 1032.63 1032.67 1032.65 1032.60
1015.43 1015.06 1014.74 1014.48 1014.30 1014.19 1014.17 1014.22 1014.35 1014.57 1014.86 1015.22 1015.64 1016.10 1016.61 1017.15 1017.70 1018.26 1018.83 1019.41 1020.00 1020.59 1021.21 1021.84 1022.50 1023.19 1023.91 1024.65 1025.42 1026.20 1026.99 1027.77 1028.53 1029.24 1029.90 1030.48 1030.98 1031.38 1031.68 1031.89 1032.01 1032.06 1032.06 1032.05
1014.51 1014.25 1014.05 1013.92 1013.86 1013.87 1013.93 1014.05 1014.23 1014.47 1014.77 1015.12 1015.53 1015.98 1016.47 1016.98 1017.51 1018.05 1018.59 1019.14 1019.67 1020.21 1020.76 1021.33 1021.92 1022.54 1023.19 1023.89 1024.63 1025.40 1026.19 1026.98 1027.76 1028.51 1029.19 1029.80 1030.32 1030.74 1031.06 1031.28 1031.42 1031.50 1031.54 1031.56
1013.70 1013.54 1013.45 1013.44 1013.48 1013.57 1013.70 1013.88 1014.09 1014.34 1014.64 1014.98 1015.38 1015.81 1016.28 1016.78 1017.29 1017.81 1018.33 1018.84 1019.34 1019.84 1020.34 1020.84 1021.38 1021.94 1022.55 1023.21 1023.93 1024.68 1025.47 1026.27 1027.07 1027.83 1028.54 1029.16 1029.70 1030.14 1030.47 1030.71 1030.88 1030.98 1031.05 1031.10
1012.94 1012.87 1012.87 1012.95 1013.07 1013.22 1013.41 1013.61 1013.84 1014.10 1014.40 1014.74 1015.12 1015.54 1016.01 1016.50 1017.01 1017.52 1018.02 1018.52 1019.00 1019.46 1019.93 1020.40 1020.89 1021.42 1022.00 1022.64 1023.33 1024.07 1024.85 1025.66 1026.45 1027.22 1027.93 1028.56 1029.11 1029.55 1029.90 1030.15 1030.34 1030.46 1030.56 1030.64
1012.18 1012.18 1012.26 1012.40 1012.57 1012.77 1012.98 1013.21 1013.45 1013.71 1014.01 1014.34 1014.73 1015.15 1015.62 1016.11 1016.63 1017.14 1017.66 1018.15 1018.62 1019.08 1019.53 1019.99 1020.46 1020.97 1021.53 1022.15 1022.82 1023.55 1024.32 1025.10 1025.89 1026.64 1027.34 1027.96 1028.50 1028.93 1029.28 1029.54 1029.73 1029.88 1029.99 1030.10
1011.41 1011.46 1011.59 1011.76 1011.97 1012.18 1012.41 1012.64 1012.89 1013.16 1013.46 1013.80 1014.20 1014.63 1015.11 1015.63 1016.16 1016.69 1017.22 1017.73 1018.21 1018.68 1019.13 1019.58 1020.05 1020.55 1021.10 1021.70 1022.36 1023.07 1023.81 1024.57 1025.32 1026.05 1026.71 1027.30 1027.81 1028.22 1028.55 1028.81 1029.00 1029.16 1029.29 1029.42
1010.63 1010.72 1010.87 1011.06 1011.28 1011.50 1011.73 1011.97 1012.22 1012.49 1012.81 1013.16 1013.57 1014.03 1014.54 1015.07 1015.62 1016.18 1016.73 1017.25 1017.75 1018.23 1018.69 1019.15 1019.62 1020.12 1020.66 1021.24 1021.88 1022.56 1023.27 1023.99 1024.70 1025.38 1025.99 1026.54 1027.00 1027.38 1027.69 1027.92 1028.11 1028.27 1028.41 1028.56
1009.90 1010.00 1010.16 1010.35 1010.56 1010.77 1011.00 1011.23 1011.49 1011.78 1012.10 1012.48 1012.92 1013.40 1013.93 1014.49 1015.07 1015.64 1016.20 1016.74 1017.25 1017.74 1018.20 1018.67 1019.14 1019.63 1020.16 1020.73 1021.34 1021.99 1022.66 1023.33 1023.98 1024.60 1025.16 1025.65 1026.07 1026.41 1026.68 1026.90 1027.07 1027.23 1027.38 1027.54
1009.25 1009.36 1009.50 1009.68 1009.86 1010.06 1010.28 1010.51 1010.77 1011.08 1011.42 1011.83 1012.29 1012.80 1013.35 1013.93 1014.52 1015.10 1015.67 1016.21 1016.72 1017.21 1017.67 1018.13 1018.60 1019.08 1019.59 1020.14 1020.72 1021.33 1021.96 1022.58 1023.17 1023.73 1024.23 1024.67 1025.03 1025.33 1025.57 1025.76 1025.93 1026.08 1026.24 1026.41
1008.74 1008.83 1008.95 1009.09 1009.25 1009.43 1009.63 1009.86 1010.13 1010.45 1010.82 1011.25 1011.73 1012.27 1012.83 1013.42 1014.02 1014.60 1015.16 1015.69 1016.19 1016.66 1017.11 1017.56 1018.01 1018.48 1018.97 1019.49 1020.04 1020.62 1021.19 1021.76 1022.30 1022.80 1023.25 1023.63 1023.95 1024.20 1024.41 1024.58 1024.74 1024.88 1025.04 1025.22
1008.37 1008.42 1008.50 1008.61 1008.74 1008.89 1009.07 1009.30 1009.58 1009.91 1010.30 1010.76 1011.26 1011.81 1012.39 1012.98 1013.57 1014.14 1014.68 1015.19 1015.67 1016.12 1016.55 1016.98 1017.41 1017.86 1018.33 1018.82 1019.34 1019.87 1020.41 1020.93 1021.42 1021.87 1022.27 1022.60 1022.88 1023.10 1023.28 1023.42 1023.56 1023.70 1023.86 1024.04
1008.11 1008.13 1008.16 1008.22 1008.32 1008.44 1008.61 1008.84 1009.12 1009.47 1009.88 1010.35 1010.87 1011.43 1012.01 1012.59 1013.17 1013.72 1014.24 1014.73 1015.18 1015.61 1016.02 1016.42 1016.83 1017.26 1017.70 1018.18 1018.66 1019.16 1019.66 1020.13 1020.58 1020.98 1021.33 1021.62 1021.86 1022.04 1022.19 1022.32 1022.44 1022.56 1022.71 1022.88
1007.93 1007.90 1007.89 1007.91 1007.96 1008.06 1008.22 1008.44 1008.73 1009.09 1009.51 1009.99 1010.53 1011.09 1011.67 1012.24 1012.81 1013.34 1013.84 1014.30 1014.73 1015.13 1015.52 1015.91 1016.30 1016.71 1017.13 1017.58 1018.04 1018.50 1018.95 1019.39 1019.79 1020.14 1020.44 1020.69 1020.89 1021.04 1021.16 1021.26 1021.35 1021.46 1021.58 1021.74
1007.74 1007.67 1007.62 1007.61 1007.63 1007.71 1007.86 1008.07 1008.37 1008.73 1009.17 1009.66 1010.19 1010.76 1011.33 1011.90 1012.45 1012.96 1013.44 1013.89 1014.30 1014.69 1015.07 1015.44 1015.82 1016.21 1016.61 1017.03 1017.46 1017.89 1018.30 1018.68 1019.03 1019.34 1019.59 1019.78 1019.94 1020.04 1020.13 1020.19 1020.26 1020.33 1020.44 1020.57
Thickness
5671 5676 5676 5676 5677 5674 5669 5665 5659 5667 5672 5685 5690 5692 5695 5696 5695 5695 5695 5694 5693 5692 5692 5691 5690 5689 5688 5687 5685 5684 5681 5679 5678 5676 5675 5673 5671 5669 5667 5666 5664 5662 5660 5658
5667 5673 5673 5672 5676 5674 5674 5673 5670 5672 5675 5691 5693 5692 5691 5691 5691 5690 5690 5690 5690 5690 5688 5687 5687 5686 5684 5683 5682 5680 5678 5676 5675 5673 5671 5669 5667 5664 5662 5660 5659 5657 5655 5653
5651 5660 5665 5661 5675 5676 5676 5678 5675 5671 5680 5687 5686 5686 5687 5688 5687 5686 5686 5686 5687 5686 5686 5685 5684 5683 5681 5680 5678 5676 5675 5673 5671 5669 5667 5665 5663 5660 5657 5655 5653 5651 5650 5649
5639 5649 5643 5666 5683 5683 5679 5678 5678 5679 5682 5684 5685 5685 5687 5686 5684 5683 5683 5683 5683 5683 5683 5682 5681 5680 5679 5677 5675 5673 5671 5670 5668 5665 5663 5661 5658 5656 5653 5651 5648 5647 5645 5643
5628 5633 5644 5665 5677 5677 5673 5672 5678 5676 5678 5679 5680 5680 5680 5684 5683 5682 5682 5681 5681 5681 5680 5679 5678 5677 5675 5673 5671 5669 5667 5666 5665 5663 5660 5657 5654 5651 5649 5646 5644 5642 5640 5638
5625 5630 5634 5659 5676 5680 5673 5663 5676 5675 5672 5672 5672 5662 5669 5679 5679 5679 5678 5678 5677 5677 5676 5674 5673 5672 5670 5667 5665 5664 5664 5663 5662 5659 5656 5654 5651 5648 5645 5642 5640 5637 5635 5633
5620 5623 5637 5661 5670 5671 5652 5657 5673 5672 5670 5667 5665 5666 5670 5673 5673 5673 5673 5673 5673 5671 5670 5669 5668 5667 5664 5663 5661 5662 5660 5659 5657 5655 5652 5650 5647 5643 5640 5637 5633 5630 5628 5626
5615 5618 5633 5662 5660 5654 5656 5665 5667 5667 5666 5664 5663 5665 5666 5666 5666 5666 5666 5666 5666 5664 5663 5663 5663 5661 5659 5658 5659 5657 5655 5653 5651 5649 5648 5645 5641 5638 5634 5631 5626 5623 5620 5617
5625 5634 5649 5654 5657 5660 5660 5659 5660 5660 5660 5659 5657 5657 5658 5658 5659 5659 5659 5658 5658 5657 5656 5655 5655 5656 5654 5654 5653 5652 5649 5647 5645 5643 5641 5638 5635 5632 5628 5624 5621 5617 5614 5611
5621 5634 5643 5647 5650 5653 5654 5655 5657 5657 5655 5654 5652 5651 5651 5651 5651 5651 5650 5651 5651 5649 5648 5648 5649 5650 5649 5649 5648 5646 5643 5640 5638 5635 5633 5631 5628 5626 5622 5618 5615 5612 5608 5605
5619 5630 5636 5642 5644 5646 5647 5649 5650 5651 5650 5649 5647 5645 5644 5644 5644 5644 5644 5643 5643 5643 5642 5642 5642 5643 5644 5643 5642 5639 5636 5633 5631 5628 5626 5623 5620 5618 5616 5614 5612 5608 5605 5601
5617 5628 5625 5632 5639 5640 5639 5641 5643 5643 5643 5643 5642 5640 5639 5638 5638 5637 5637 5637 5636 5636 5635 5635 5635 5636 5637 5636 5635 5632 5629 5626 5623 5621 5618 5615 5612 5609 5607 5606 5604 5602 5600 5596
5623 5627 5626 5631 5633 5635 5634 5636 5637 5637 5637 5637 5637 5636 5634 5632 5631 5630 5630 5629 5629 5629 5628 5628 5628 5628 5629 5629 5628 5625 5622 5619 5617 5614 5611 5607 5605 5602 5598 5596 5595 5593 5592 5589
5620 5621 5621 5625 5626 5629 5629 5630 5630 5630 5630 5631 5630 5629 5628 5626 5624 5623 5623 5622 5622 5621 5620 5620 5620 5620 5621 5621 5620 5618 5615 5613 5610 5607 5604 5601 5598 5595 5592 5589 5586 5584 5583 5581
5615 5616 5618 5620 5621 5621 5622 5621 5620 5620 5621 5621 5622 5621 5620 5619 5617 5616 5615 5614 5613 5612 5611 5612 5612 5612 5613 5613 5611 5610 5607 5604 5602 5599 5597 5594 5591 5588 5585 5582 5580 5577 5574 5571
5609 5610 5611 5612 5612 5613 5613 5613 5612 5612 5612 5612 5612 5612 5613 5612 5610 5608 5607 5606 5603 5602 5603 5603 5604 5604 5604 5603 5602 5601 5599 5597 5594 5591 5588 5586 5583 5580 5577 5574 5572 5569 5566 5563
5599 5600 5602 5602 5603 5604 5605 5605 5605 5605 5604 5604 5604 5604 5603 5602 5600 5598 5597 5597 5596 5595 5595 5595 5595 5596 5596 5595 5593 5592 5590 5587 5585 5582 5579 5577 5575 5573 5570 5567 5564 5561 5558 5555
5597 5598 5598 5598 5597 5597 5597 5597 5597 5597 5597 5597 5596 5595 5593 5592 5591 5590 5589 5588 5587 5586 5586 5587 5587 5587 5587 5586 5585 5583 5581 5578 5576 5573 5571 5569 5567 5566 5563 5559 5557 5554 5550 5547
5588 5589 5590 5591 5591 5590 5589 5590 5590 5591 5591 5589 5588 5586 5586 5584 5583 5582 5580 5579 5577 5577 5578 5579 5579 5578 5578 5577 5576 5574 5572 5570 5567 5564 5562 5561 5558 5556 5554 5551 5548 5545 5542 5538
5580 5581 5582 5583 5584 5583 5583 5584 5584 5583 5583 5582 5580 5578 5576 5575 5574 5572 5571 5570 5570 5570 5571 5571 5570 5569 5568 5567 5566 5565 5563 5560 5557 5555 5552 5551 5549 5548 5545 5543 5540 5537 5534 5531
5571 5572 5573 5574 5575 5576 5576 5576 5576 5575 5575 5574 5572 5571 5569 5567 5565 5563 5562 5561 5563 5562 5562 5563 5561 5560 5560 5559 5558 5556 5554 5551 5549 5546 5544 5543 5541 5539 5536 5534 5532 5529 5527 5524
5561 5562 5562 5563 5564 5566 5567 5567 5567 5567 5566 5565 5564 5562 5560 5558 5556 5555 5555 5555 5556 5555 5554 5554 5554 5554 5553 5552 5549 5547 5546 5543 5541 5539 5536 5535 5533 5531 5528 5526 5524 5522 5519 5517
5551 5552 5552 5553 5554 5555 5556 5557 5557 5558 5557 5557 5555 5554 5553 5551 5550 5548 5547 5548 5548 5548 5547 5547 5547 5547 5546 5543 5541 5539 5537 5536 5533 5531 5529 5527 5526 5523 5521 5519 5516 5514 5511 5509
5543 5543 5544 5544 5544 5544 5545 5546 5546 5546 5547 5547 5546 5545 5544 5542 5541 5541 5541 5542 5541 5541 5540 5540 5540 5540 5538 5535 5533 5531 5529 5528 5526 5524 5521 5520 5518 5516 5513 5511 5509 5506 5504 5502
5534 5534 5534 5534 5534 5534 5534 5534 5534 5535 5535 5535 5535 5535 5534 5534 5533 5533 5532 5533 5533 5533 5532 5532 5533 5531 5529 5527 5525 5523 5522 5520 5518 5516 5514 5512 5510 5508 5506 5503 5501 5498 5496 5494
5525 5525 5525 5525 5524 5524 5523 5524 5524 5524 5524 5524 5524 5524 5524 5524 5523 5523 5523 5524 5524 5524 5524 5524 5523 5522 5520 5519 5517 5516 5514 5512 5510 5508 5506 5504 5503 5500 5498 5496 5493 5491 5489 5487
5515 5515 5515 5515 5515 5515 5514 5514 5514 5514 5514 5514 5514 5514 5514 5514 5514 5514 5514 5514 5515 5515 5514 5514 5514 5513 5512 5511 5509 5507 5505 5504 5502 5500 5498 5496 5495 5493 5491 5488 5486 5483 5481 5479